DateTimeUTC,F1_A11,F1_S11,BsB_S11,BsG_S11,BsR_S11,BbsB_S11,BbsG_S11,BbsR_S11,BaB_A11,BaG_A11,BaR_A11,Tu_S11,T_S11,Uu_S11,U_S11,P_S11,T1_A11
2021-08-10T16:00:00Z,00040200,20000000,,,,,,,0000.37,-000.22,-000.08,18.8,25.3,05.5,03.7,0675.0,31.0
2021-08-10T16:01:00Z,00040200,20000000,,,,,,,-000.34,0000.31,-000.04,18.8,25.4,05.5,03.7,0675.0,31.0
2021-08-10T16:02:00Z,00040200,20000000,,,,,,,0000.11,-000.14,-000.28,18.8,25.4,05.5,03.7,0675.0,31.0
2021-08-10T16:03:00Z,00040200,60000000,,,,,,,0000.16,0000.35,0000.32,18.8,25.4,05.5,03.7,0675.0,31.0
2021-08-10T16:04:00Z,00040200,40000000,0001.88,0001.22,0000.75,0000.10,0000.25,-000.20,0000.29,0000.36,0000.41,19.0,25.2,05.5,03.8,0676.0,31.0
2021-08-10T16:05:00Z,00040200,00000000,0001.84,0001.44,0000.89,-000.10,0000.34,0000.39,0000.10,0000.21,0000.21,19.0,25.2,05.4,03.7,0676.0,31.0
2021-08-10T16:06:00Z,00040200,00000000,0001.99,0001.70,0000.83,-000.01,0000.21,0000.51,0000.48,0000.30,0000.19,19.0,25.2,05.4,03.7,0676.0,31.0
2021-08-10T16:07:00Z,00040200,00000000,0001.65,0001.63,0001.04,0000.17,0000.46,0000.26,0000.33,0000.39,0000.40,19.0,25.2,05.4,03.7,0676.0,31.0
2021-08-10T16:08:00Z,00040200,00000000,0002.46,0001.66,0001.26,-000.10,0000.23,0000.47,0000.63,0000.29,0000.45,19.0,25.2,05.6,03.8,0676.0,31.0
2021-08-10T16:09:00Z,00040200,00000000,0001.99,0001.80,0001.60,0000.40,0000.21,0000.19,-000.16,0000.19,0000.12,19.1,25.2,05.5,03.8,0676.1,31.0
2021-08-10T16:10:00Z,00040200,00000000,0002.47,0001.83,0001.08,0000.39,0000.35,-000.03,0000.68,0000.60,0000.14,19.1,25.2,05.5,03.8,0676.1,31.0
2021-08-10T16:11:00Z,00040200,00000000,0002.36,0002.31,0000.99,0000.21,0000.50,0000.36,0000.09,0000.03,0000.23,19.1,25.2,05.5,03.8,0676.1,31.0
2021-08-10T16:12:00Z,00040200,00000000,0001.83,0002.12,0001.27,-000.48,0000.34,0000.34,0000.72,0000.85,0000.72,19.1,25.2,05.5,03.8,0676.1,31.1
2021-08-10T16:13:00Z,00040200,00000000,0002.93,0001.87,0001.34,0000.02,0000.21,0000.19,0000.86,0000.37,0000.21,19.1,25.2,05.5,03.8,0676.0,31.0
2021-08-10T16:14:00Z,00040200,00000000,0002.18,0002.05,0001.28,0000.76,0000.59,0000.43,0000.12,0000.11,0000.85,19.1,25.2,05.5,03.8,0676.1,31.0
2021-08-10T16:15:00Z,00040200,00000000,0002.69,0001.96,0001.54,0000.10,0000.55,0000.53,0000.13,0000.69,-000.10,19.1,25.2,05.6,03.8,0676.1,31.0
2021-08-10T16:16:00Z,00040200,00000000,0002.22,0001.72,0001.26,0000.75,0000.40,-000.17,0000.87,0000.48,0000.47,19.1,25.2,05.6,03.8,0676.1,31.1
2021-08-10T16:17:00Z,00040200,00000000,0003.05,0001.95,0001.29,0000.71,0000.58,0000.35,0001.13,0001.31,0001.10,19.1,25.2,05.7,04.0,0676.1,31.0
2021-08-10T16:18:00Z,00040200,00000000,0003.15,0002.24,0001.63,0000.52,0000.59,0000.21,0000.97,0000.77,0001.03,19.1,25.2,06.1,04.2,0676.0,31.0
2021-08-10T16:19:00Z,00040200,00000000,0002.22,0002.28,0001.45,0001.22,0000.30,0000.38,0000.59,0000.46,0000.47,19.1,25.2,06.2,04.3,0676.1,31.1
2021-08-10T16:20:00Z,00040200,00000000,0003.27,0002.40,0001.72,-000.07,0000.27,0000.37,0000.88,0000.66,0000.70,19.1,25.2,06.2,04.3,0676.0,31.0
2021-08-10T16:21:00Z,00040200,00000000,0002.75,0002.35,0001.96,0000.64,0000.44,0000.57,0000.71,0000.85,0000.17,19.1,25.2,06.3,04.3,0676.0,31.0
2021-08-10T16:22:00Z,00040200,00000000,0002.67,0002.33,0001.63,0000.98,0000.08,-000.07,0000.38,0000.36,0000.84,19.1,25.2,06.3,04.3,0676.0,31.0
2021-08-10T16:23:00Z,00040200,00000000,0003.17,0002.45,0001.87,0000.19,0000.32,0000.55,0000.58,0000.61,0000.65,19.1,25.2,06.3,04.4,0676.0,31.0
2021-08-10T16:24:00Z,00040200,00000000,0003.11,0002.24,0001.69,0000.34,0000.41,0000.82,0000.90,0000.74,0000.26,19.1,25.2,06.3,04.4,0676.0,31.0
2021-08-10T16:25:00Z,00040200,00000000,0003.07,0002.40,0001.61,0000.52,0000.32,0000.63,0000.50,0000.48,0000.29,19.1,25.2,06.4,04.4,0676.0,31.1
2021-08-10T16:26:00Z,00040200,00000000,0003.45,0002.48,0001.73,0000.68,0000.15,0000.13,0000.38,0000.52,0000.81,19.1,25.2,06.4,04.4,0676.0,31.0
2021-08-10T16:27:00Z,00040200,00000000,0003.77,0002.47,0001.53,0000.46,0000.16,0000.26,0001.25,0001.00,0000.69,19.1,25.2,06.5,04.5,0676.0,31.1
2021-08-10T16:28:00Z,00040200,00000000,0003.04,0002.48,0001.78,0000.22,0000.31,0000.58,0000.57,0001.16,0000.67,19.1,25.2,06.6,04.5,0676.0,31.1
2021-08-10T16:29:00Z,00040200,00000000,0002.42,0002.32,0001.71,0000.04,0000.56,0000.38,0000.53,0000.14,0000.39,19.1,25.2,06.6,04.6,0676.0,31.0
2021-08-10T16:30:00Z,00040200,00000000,0003.01,0002.48,0001.87,0000.37,0000.49,0000.25,0001.00,0000.62,0000.67,19.1,25.2,06.6,04.5,0676.0,31.0
2021-08-10T16:31:00Z,00040200,00000000,0003.70,0002.58,0001.61,0000.91,0000.27,0000.35,0000.39,0000.65,0000.47,19.1,25.3,06.8,04.7,0676.0,31.1
2021-08-10T16:32:00Z,00040200,00000000,0003.70,0002.62,0001.65,0000.55,0000.21,0000.38,0000.51,0000.36,0000.53,19.2,25.2,06.7,04.6,0676.0,31.1
2021-08-10T16:33:00Z,00040200,00000000,0003.33,0002.68,0001.57,0000.19,0000.61,0000.11,0001.19,0001.44,0001.09,19.1,25.2,06.8,04.7,0676.0,31.0
2021-08-10T16:34:00Z,00040200,00000000,0004.03,0002.45,0001.64,0000.59,0000.47,0000.02,0000.53,0000.21,0000.24,19.1,25.2,07.0,04.9,0676.1,31.0
2021-08-10T16:35:00Z,00040200,00000000,0004.18,0002.75,0001.69,0000.89,0000.57,0000.48,0000.31,0000.68,0000.55,19.2,25.3,06.8,04.7,0676.1,31.0
2021-08-10T16:36:00Z,00040200,00000000,0003.59,0002.71,0001.95,0000.25,0000.58,0000.38,0000.59,0000.50,0000.30,19.2,25.2,06.9,04.8,0676.1,31.0
2021-08-10T16:37:00Z,00040200,00000000,0003.46,0002.81,0001.70,0000.06,0000.40,0000.55,0000.92,0000.75,0000.99,19.2,25.2,06.8,04.7,0676.1,31.1
2021-08-10T16:38:00Z,00040200,00000000,0003.76,0002.35,0001.52,0000.14,0000.57,0000.28,0000.82,0000.81,0000.23,19.2,25.2,06.9,04.8,0676.1,31.0
2021-08-10T16:39:00Z,00040200,00000000,0004.17,0002.95,0001.65,0000.36,0000.69,0000.25,0000.85,0000.38,0000.56,19.2,25.3,06.8,04.7,0676.1,31.1
2021-08-10T16:40:00Z,00040200,00000000,0003.76,0002.67,0001.60,0000.81,0000.52,0000.43,0000.42,0000.77,0000.67,19.2,25.2,06.9,04.8,0676.1,31.0
2021-08-10T16:41:00Z,00040200,00000000,0003.39,0002.63,0001.68,0000.28,0000.66,0000.28,0000.48,0000.43,0000.40,19.2,25.3,07.0,04.8,0676.1,31.0
2021-08-10T16:42:00Z,00040200,00000000,0002.84,0002.91,0001.76,0000.02,0000.54,0000.24,0000.53,0000.10,0000.26,19.2,25.3,07.0,04.8,0676.1,31.0
2021-08-10T16:43:00Z,00040200,00000000,0003.68,0002.52,0002.05,0000.68,0000.68,0000.52,0000.75,0001.14,0000.72,19.2,25.3,07.0,04.8,0676.1,31.0
2021-08-10T16:44:00Z,00040200,00000000,0003.00,0002.54,0001.60,0000.69,0000.28,0000.59,0000.56,0000.43,0000.08,19.2,25.3,07.0,04.8,0676.1,31.0
2021-08-10T16:45:00Z,00040200,00000000,0003.18,0002.62,0001.83,0000.71,0000.39,0000.56,0000.38,0000.17,0000.78,19.2,25.3,06.8,04.7,0676.1,31.0
2021-08-10T16:46:00Z,00040200,00000000,0003.44,0002.21,0001.57,0000.67,0000.43,0000.49,0000.83,0001.10,0000.24,19.2,25.3,06.9,04.8,0676.1,31.1
2021-08-10T16:47:00Z,00040200,00000000,0002.92,0002.11,0001.82,-000.02,0000.43,0000.33,0000.76,0000.67,0000.91,19.2,25.3,07.1,04.9,0676.1,31.0
2021-08-10T16:48:00Z,00040200,00000000,0003.07,0002.42,0001.61,0000.59,0000.28,0000.65,0000.43,0000.41,0000.22,19.2,25.3,07.1,04.9,0676.1,31.0
2021-08-10T16:49:00Z,00040200,00000000,0003.23,0002.44,0001.69,0000.56,0000.67,0000.29,0000.25,0000.44,0000.49,19.2,25.3,07.0,04.8,0676.1,31.0
2021-08-10T16:50:00Z,00040200,00000000,0003.02,0002.46,0001.75,0000.35,0000.53,0000.43,0000.88,0000.56,0000.49,19.2,25.3,07.1,04.9,0676.1,31.1
2021-08-10T16:51:00Z,00040200,00000000,0002.83,0002.95,0001.89,0000.23,0000.13,0000.31,0000.38,0000.62,0000.48,19.2,25.3,07.0,04.8,0676.1,31.1
2021-08-10T16:52:00Z,00040200,00000000,0003.14,0002.27,0001.80,-000.22,0000.13,0000.35,0000.74,0000.54,0000.40,19.2,25.3,07.0,04.9,0676.1,31.0
2021-08-10T16:53:00Z,00040200,00000000,0003.20,0002.57,0001.70,0000.64,0000.15,0000.69,0000.47,0000.51,0000.57,19.2,25.3,07.0,04.8,0676.1,31.0
2021-08-10T16:54:00Z,00040200,00000000,0003.09,0002.32,0001.70,0000.05,0000.19,0000.25,0000.83,0000.16,0000.39,19.3,25.3,07.0,04.8,0676.1,31.1
2021-08-10T16:55:00Z,00040200,00000000,0002.82,0002.27,0001.72,0000.79,0000.67,0000.57,0000.38,0000.61,0000.24,19.3,25.3,06.9,04.8,0676.1,31.1
2021-08-10T16:56:00Z,00040200,00000000,0003.32,0002.08,0001.53,0000.02,0000.40,0000.51,0000.25,0000.50,0000.59,19.3,25.3,07.0,04.9,0676.1,31.0
2021-08-10T16:57:00Z,00040200,40000000,,,,,,,-000.45,-000.33,-000.60,19.3,25.4,07.2,05.0,0676.0,31.1
2021-08-10T16:58:00Z,00040200,60000000,,,,,,,0000.45,0000.21,0000.42,19.1,25.4,06.7,04.5,0675.1,31.1
2021-08-10T16:59:00Z,00040200,20000000,,,,,,,-000.08,0000.35,-000.02,19.1,25.5,06.8,04.6,0675.1,31.1
